Probability
0 0 0 0 0 0 0 0 1 3 5 7 12 21 31 37 42 46 48 51 55 60 70 77 81 85 86 86 86 81 77 76 75 71 67 64 63 62 59 58 59 58 57 60
0 0 0 0 0 0 0 0 2 4 5 8 15 25 35 41 45 48 50 53 57 61 67 71 73 76 78 80 79 75 72 72 72 71 69 68 66 61 52 47 46 45 45 47
0 0 0 0 0 0 0 0 2 3 4 5 12 22 31 38 41 45 50 54 56 56 57 58 59 61 64 68 69 68 68 69 70 71 72 74 72 60 42 31 27 25 24 26
0 0 0 0 0 0 0 0 1 1 1 2 4 11 21 32 37 41 48 52 51 47 45 44 43 44 45 49 51 55 57 59 63 69 71 71 65 49 30 19 14 11 10 11
0 0 0 0 0 0 0 0 0 0 0 0 0 4 16 29 33 36 42 45 43 39 36 33 30 29 28 30 32 35 39 42 47 56 60 54 42 28 17 11 8 6 6 6
0 0 0 0 0 0 0 0 0 0 0 0 0 5 18 31 33 32 35 35 32 30 27 24 22 20 18 19 21 22 24 25 29 34 36 30 21 13 9 7 5 4 4 4
0 0 0 0 0 0 0 0 0 0 0 0 1 11 29 41 40 34 30 25 21 19 17 16 16 15 14 14 15 15 15 14 15 15 14 13 11 8 5 4 4 3 2 2
0 0 0 0 0 0 0 0 0 0 0 1 5 22 43 49 43 34 24 16 12 11 11 10 10 9 10 10 9 9 8 7 7 5 4 4 5 4 3 2 2 1 1 1
0 0 0 0 0 0 0 0 0 0 0 1 8 24 39 42 36 28 18 10 8 8 8 7 5 5 5 5 4 4 3 3 3 2 1 1 1 1 1 1 1 0 0 0
0 0 0 0 0 0 0 0 0 0 0 1 5 13 22 28 26 21 15 9 6 6 5 4 3 2 1 1 1 1 1 1 1 1 0 0 0 0 0 0 0 0 0 0
0 0 0 0 0 0 0 0 0 0 0 0 1 4 12 19 19 15 12 8 5 3 1 1 1 1 0 0 0 0 0 0 0 0 0 0 0 0 0 0 0 0 0 0
1 0 0 0 0 0 0 0 0 0 0 0 1 4 11 16 14 10 7 5 3 1 0 0 0 0 0 0 0 0 0 0 0 0 0 0 0 0 0 0 0 0 0 0
1 1 0 0 0 0 0 0 0 0 0 0 1 4 10 14 11 6 4 3 1 0 0 0 0 0 0 0 0 0 0 0 0 0 0 0 0 0 0 0 0 0 0 0
1 1 0 0 0 0 0 0 0 0 1 1 1 3 7 9 7 5 3 1 0 0 0 0 0 0 0 0 0 0 0 0 0 0 0 0 0 0 0 0 0 0 0 0
0 0 0 0 0 1 1 1 1 1 1 2 2 3 4 5 6 5 3 1 0 0 0 0 0 0 0 0 0 0 0 0 0 0 0 0 0 0 0 0 0 0 0 0
0 0 0 0 0 1 1 2 2 2 2 3 2 2 3 5 6 5 2 0 0 0 0 0 0 0 0 0 0 0 0 0 0 0 0 0 0 0 0 0 0 0 0 0
0 0 0 0 0 0 2 3 3 3 2 3 3 3 3 5 6 4 1 0 0 0 0 0 0 0 0 0 0 0 0 0 0 0 0 0 0 0 0 0 0 0 0 0
0 0 0 0 0 0 1 2 3 3 3 4 6 5 5 5 6 4 1 0 0 0 0 0 0 0 0 0 0 0 0 0 0 0 0 0 0 0 0 0 0 0 0 0
0 0 0 0 0 0 0 1 2 2 2 4 6 5 4 4 4 3 1 0 0 0 0 0 0 0 0 0 0 0 0 0 0 0 0 0 0 0 0 0 0 0 0 0
0 0 0 0 0 0 0 0 1 1 1 2 3 3 2 3 3 1 0 0 0 0 0 0 0 0 0 0 0 0 0 0 0 0 0 0 0 0 0 0 0 0 0 0
0 0 0 0 0 0 0 0 0 0 0 1 2 2 2 2 1 1 0 0 0 0 0 0 0 0 0 0 0 0 0 0 0 0 0 0 0 0 0 0 0 0 0 0
0 0 0 0 0 0 0 0 0 0 0 1 1 2 2 1 0 0 0 0 0 0 0 0 0 0 0 0 0 0 0 0 0 0 0 0 0 0 0 0 0 0 0 0
0 0 0 0 0 0 0 0 0 0 0 0 0 1 1 0 0 0 0 0 0 0 0 0 0 0 0 0 0 0 0 0 0 0 0 0 0 0 0 0 0 0 0 0
0 0 0 0 0 0 0 0 0 0 0 0 0 0 0 0 0 0 0 0 0 0 0 0 0 0 0 0 0 0 0 0 0 0 0 0 0 0 0 0 0 0 0 0
0 0 0 0 0 0 0 0 0 0 0 0 0 0 0 0 0 0 0 0 0 0 0 0 0 0 0 0 0 0 0 0 0 0 0 0 0 0 0 0 0 0 0 0
0 0 0 0 0 0 0 0 0 0 0 0 0 0 0 0 0 0 0 0 0 0 0 0 0 0 0 0 0 0 0 0 0 0 0 0 0 0 0 0 0 0 0 0
Wind_Speed
11 11 11 12 13 15 16 15 13 8 7 10 10 6 2 4 3 5 6 7 7 9 11 10 10 8 8 8 7 5 5 6 5 5 5 4 3 4 4 4 6 6 6 5
12 13 12 12 11 11 13 14 10 3 3 5 7 6 4 6 7 7 8 8 9 11 12 11 10 9 8 7 5 4 4 4 4 3 3 3 4 5 5 6 8 8 7 6
13 9 7 10 11 10 13 13 10 7 4 6 6 6 6 7 8 7 9 9 11 12 12 10 10 10 9 8 6 4 3 3 3 4 4 5 5 5 5 6 6 9 9 8
12 10 8 8 10 11 12 11 10 10 8 8 12 9 10 10 9 8 9 10 12 12 12 11 10 10 10 9 8 9 8 5 4 4 5 7 6 6 6 6 7 9 9 9
11 9 10 11 11 11 12 11 10 12 11 11 11 9 8 11 10 9 9 10 12 12 11 11 11 10 10 10 9 9 10 9 8 7 6 8 8 8 7 8 10 9 8 9
14 12 11 11 10 11 10 12 11 12 11 14 13 11 8 10 11 11 10 11 11 11 11 11 10 11 11 11 10 10 12 12 12 12 11 11 11 10 11 10 8 7 7 7
11 11 12 10 11 10 11 11 8 10 12 14 13 10 4 10 13 14 14 11 11 10 10 10 11 12 11 12 12 12 13 13 13 14 14 13 12 12 11 10 9 8 7 7
8 9 9 9 11 9 11 13 11 8 7 8 8 4 8 13 15 15 15 13 11 11 11 12 11 11 11 12 12 13 14 14 13 14 13 12 12 10 9 10 9 9 7 7
6 7 9 11 11 12 12 13 14 11 10 9 2 6 8 14 16 16 16 14 12 12 12 12 12 12 12 12 12 13 13 13 13 13 14 13 12 12 12 11 10 8 6 7
5 7 9 9 10 13 12 10 7 8 7 8 5 7 9 17 17 16 16 14 13 12 12 12 11 11 11 12 12 13 14 14 13 12 11 12 12 11 11 10 10 8 7 6
5 6 9 7 7 9 10 10 8 8 7 6 4 2 3 14 16 16 15 14 14 13 12 11 11 11 11 11 12 12 13 13 13 13 12 12 10 10 10 9 8 7 6 6
2 3 7 8 7 8 9 9 7 7 7 6 3 2 5 13 15 16 16 15 14 13 12 12 12 11 11 11 11 11 11 12 12 11 11 10 9 9 9 8 7 6 6 6
5 2 5 6 5 6 6 7 7 7 7 5 3 4 8 14 16 16 16 15 14 13 13 12 11 11 11 11 10 10 10 10 10 10 10 9 9 8 8 7 7 6 6 6
1 1 2 5 6 7 6 5 5 6 5 5 3 7 9 13 14 15 15 14 13 13 12 12 11 11 10 10 9 9 9 9 9 9 9 9 8 7 7 6 6 5 5 5
1 2 3 8 9 8 5 4 4 5 6 4 5 6 8 11 13 14 14 14 14 13 13 12 11 9 9 8 8 8 8 8 8 8 9 8 7 6 6 5 5 4 4 5
2 3 4 6 6 4 2 6 7 7 7 6 8 7 8 12 13 14 14 14 14 13 13 12 11 9 9 7 7 7 7 6 6 7 8 7 6 6 5 4 4 4 4 5
3 3 4 5 4 3 3 7 7 9 8 6 6 8 11 12 13 13 13 13 13 13 12 11 10 9 7 6 6 7 6 6 6 6 6 6 5 5 4 5 4 4 4 4
4 5 4 6 4 2 4 6 8 10 11 12 13 12 11 12 12 10 11 14 14 13 12 10 9 7 6 5 5 5 5 5 6 6 6 6 5 5 4 4 3 3 3 3
1 3 4 3 2 5 4 4 5 5 8 11 13 13 14 15 13 9 10 12 13 13 11 9 8 7 6 5 5 4 4 5 6 6 5 5 4 4 3 3 3 3 2 2
3 3 4 3 2 2 4 5 4 3 6 8 10 11 12 11 7 6 10 13 14 12 10 8 8 7 6 5 4 4 4 4 5 5 5 4 4 4 3 3 2 2 1 2
2 3 4 3 2 6 6 5 4 2 4 7 8 9 8 4 8 13 14 13 13 11 10 9 8 7 6 5 4 4 5 5 4 4 4 3 2 1 2 2 2 2 2 2
4 4 4 4 4 5 8 6 7 6 8 9 10 10 11 13 17 16 15 14 13 11 10 9 7 6 5 4 4 5 5 4 3 3 3 2 1 2 3 1 1 2 2 2
5 6 6 7 7 8 10 10 9 10 11 11 12 13 15 16 17 16 15 13 12 11 9 8 7 7 6 5 4 5 4 3 2 2 1 0 1 2 2 2 2 1 1 2
5 4 6 7 9 10 11 11 11 12 12 13 14 15 16 16 16 15 13 12 11 10 9 7 7 7 6 5 5 4 3 2 1 0 1 1 1 1 1 1 3 3 4 4
6 4 6 9 11 10 10 11 13 13 14 15 15 15 15 16 15 14 12 11 10 9 8 7 6 7 7 6 5 4 3 1 0 1 1 1 1 1 1 3 4 5 5 4
4 4 3 6 10 9 12 12 14 13 14 15 16 15 15 14 15 14 11 10 9 9 8 7 7 7 6 5 4 3 2 1 1 2 3 2 1 1 2 4 4 6 5 4
Wind_Direction
228 236 243 243 240 256 281 288 279 256 173 185 197 190 146 79 64 90 105 113 106 95 81 77 80 71 81 90 100 110 129 135 144 153 164 164 142 116 94 78 70 66 58 60
243 238 251 265 268 266 274 278 277 263 159 193 185 166 105 84 74 59 60 72 91 88 78 68 74 76 68 73 88 110 130 133 142 149 148 139 122 105 92 80 67 63 61 55
254 261 253 257 259 255 260 263 262 260 235 208 199 203 165 122 99 85 75 68 73 77 74 65 63 62 62 60 55 64 76 104 127 131 134 130 115 109 97 82 70 55 53 51
260 258 255 252 256 252 253 251 255 260 244 223 208 216 191 156 128 107 89 79 75 72 69 63 58 56 51 51 48 45 47 57 70 104 138 137 128 116 96 88 81 69 58 55
268 260 253 248 247 251 257 261 243 245 247 254 231 230 197 165 151 130 105 91 79 75 72 66 58 53 51 48 50 52 51 49 52 60 84 100 97 97 95 90 84 76 65 59
271 275 263 257 250 246 254 258 250 242 245 244 240 242 198 174 159 133 111 97 85 79 76 71 64 57 53 51 51 55 59 54 52 59 69 87 99 102 99 94 90 80 71 62
265 266 261 255 252 233 236 244 237 227 231 240 229 228 125 138 135 134 120 103 92 86 78 72 65 60 55 54 56 59 64 60 59 65 67 73 85 89 91 92 87 83 75 68
286 276 256 236 243 234 227 241 247 247 252 260 237 178 116 115 116 116 115 111 99 87 77 71 68 66 62 59 60 64 67 66 65 69 71 72 76 82 83 83 87 84 80 75
293 274 254 235 239 247 227 236 252 266 275 274 246 115 130 126 125 127 122 114 102 90 82 77 72 69 66 64 64 69 73 73 72 74 77 76 78 82 85 84 83 82 83 83
277 286 262 232 229 235 248 247 254 254 263 268 228 191 177 162 151 140 128 120 109 100 91 84 78 74 72 71 71 71 74 76 75 76 79 83 81 82 84 85 84 84 82 80
272 280 275 246 227 231 232 242 252 267 266 270 251 225 153 167 152 140 129 122 115 107 99 92 87 82 81 79 77 78 78 80 79 79 79 81 82 84 84 83 84 84 84 81
316 313 294 279 258 253 243 251 252 267 284 291 296 54 97 137 136 133 125 120 114 108 103 98 94 88 83 81 79 78 80 83 84 84 84 83 83 82 84 84 83 80 76 74
8 6 311 294 256 250 245 251 260 269 281 297 314 87 102 122 125 127 125 122 118 113 107 102 95 89 84 81 79 79 80 82 85 87 85 83 82 81 81 80 77 73 68 63
347 303 264 266 278 285 272 268 287 301 307 336 50 120 125 123 125 125 123 122 119 113 108 102 95 89 85 81 81 80 80 83 87 87 86 84 83 83 82 80 77 77 78 71
99 292 253 263 268 281 292 333 1 9 5 30 85 107 130 130 131 128 126 124 119 114 109 105 102 97 93 89 85 83 82 79 83 89 90 90 90 88 85 81 76 68 63 71
148 245 253 246 238 265 345 27 26 42 39 72 98 98 113 118 123 127 131 130 126 122 117 113 111 107 101 96 95 94 94 94 94 97 100 100 99 98 97 94 80 68 58 53
303 269 275 273 208 176 54 40 40 48 47 54 83 106 117 116 126 134 136 133 128 124 121 118 115 109 105 102 106 107 106 107 109 110 112 111 106 101 94 87 80 69 63 60
307 317 311 300 315 78 78 59 64 64 62 75 91 101 106 110 111 118 129 131 128 127 124 121 119 118 114 110 110 115 121 121 112 105 102 102 101 92 85 83 74 63 56 55
238 294 293 295 359 98 94 57 39 67 74 87 102 107 111 113 102 97 114 122 127 129 128 129 130 127 126 127 128 125 120 114 111 105 99 92 89 87 81 74 63 51 39 32
209 249 273 304 339 87 74 45 31 94 96 95 113 127 137 143 123 131 132 127 127 128 130 133 135 132 129 127 127 121 111 101 99 96 90 80 70 69 68 57 39 24 358 9
252 257 279 308 65 82 33 9 348 1 93 108 116 129 141 131 115 132 134 130 130 132 137 138 134 130 125 123 118 109 101 93 91 94 91 85 68 48 95 72 21 345 359 21
339 344 357 354 54 62 15 34 53 81 99 102 106 109 108 109 118 128 131 132 134 136 138 134 129 126 127 132 128 111 100 98 97 93 89 80 5 353 72 68 354 330 328 312
36 30 34 48 77 80 63 76 90 99 101 103 107 112 117 121 127 131 132 134 136 138 137 135 136 133 133 130 118 110 109 115 115 106 107 159 353 34 26 0 339 332 340 352
113 86 105 107 105 98 93 92 92 97 102 107 112 117 121 123 127 129 131 133 135 136 136 141 141 137 131 129 124 125 137 143 136 168 245 237 208 166 110 7 11 29 23 14
103 121 105 111 120 115 105 101 101 104 108 110 114 120 122 125 128 129 129 132 134 135 140 145 141 136 137 143 147 152 153 155 212 279 283 280 254 139 118 84 47 40 63 48
94 109 148 144 148 134 123 118 117 116 116 118 120 120 124 127 127 127 127 129 132 135 138 140 142 143 145 150 152 157 167 195 245 269 272 265 202 167 151 136 122 60 84 110